Simultaneous Nadir Overpasses (SNOs) Predictions

Prediction of SNOs between NOAA-19 and TERRA Satellite Orbit:

Table of predicted SNOs for the next 14.0 days since TLE Epoch: 12/14/2024
Index Date (NOAA-19) Time (NOAA-19) Lat,Lon (NOAA-19) SZA (NOAA-19 ) Date (TERRA) Time (TERRA) Lat,Lon (TERRA) SZA (TERRA ) Distance(km) Time Diff (sec)
1 12/15/2024 05:35:46 45.00, 68.52 72.25 12/15/2024 05:35:29 45.09, 68.08 72.48 36.44 17
2 12/17/2024 08:34:17 45.01, 23.95 72.40 12/17/2024 08:34:11 45.10, 23.37 72.65 46.36 6
3 12/19/2024 11:32:44 45.23, -20.55 72.69 12/19/2024 11:32:48 45.37, -21.24 73.01 56.55 4
4 12/21/2024 14:31:04 45.85, -64.88 73.26 12/21/2024 14:31:18 46.03, -65.71 73.65 67.34 14
5 12/21/2024 15:16:42 -64.05, 113.29 91.62 12/21/2024 15:15:29 -64.31, 111.83 91.15 76.27 73
6 12/23/2024 17:04:46 45.07, 58.26 137.47 12/23/2024 17:05:56 45.24, 59.10 138.20 68.55 70
7 12/23/2024 18:19:51 -48.50, 58.89 104.56 12/23/2024 18:18:38 -48.62, 58.22 104.18 51.41 73
8 12/25/2024 20:06:59 57.76, 7.36 130.11 12/25/2024 20:08:11 57.98, 8.67 130.83 81.39 72
9 12/25/2024 21:19:23 -45.01, 12.86 107.36 12/25/2024 21:18:17 -45.13, 12.21 106.96 53.11 66
10 12/27/2024 23:26:06 47.51, 162.07 74.62 12/27/2024 23:26:49 47.76, 160.82 75.16 97.24 43



Historial Predications of SNOs between NOAA-19 and TERRA
